Temp
-17 -16 -16 -16 -17 -17 -17 -17 -17 -17 -16 -16 -17 -17 -17 -17 -17 -17 -16 -16 -16 -16 -16 -16 -16 -16 -16 -16 -16 -16 -16 -16 -16 -16 -16 -16 -16 -16 -16 -16 -16 -16
-17 -17 -17 -17 -17 -17 -17 -17 -17 -17 -16 -17 -17 -17 -17 -17 -17 -17 -17 -17 -16 -16 -16 -16 -16 -16 -16 -16 -16 -16 -16 -16 -16 -16 -16 -16 -17 -17 -17 -17 -17 -17
-17 -17 -17 -17 -17 -17 -17 -17 -17 -16 -16 -17 -17 -17 -17 -17 -17 -17 -17 -17 -17 -16 -16 -16 -16 -16 -16 -16 -17 -17 -17 -17 -17 -17 -17 -17 -17 -17 -17 -17 -17 -17
-17 -17 -17 -17 -17 -17 -17 -17 -17 -16 -16 -17 -17 -17 -18 -17 -17 -17 -17 -17 -17 -17 -16 -16 -16 -17 -17 -17 -17 -17 -17 -17 -17 -17 -17 -17 -17 -17 -17 -17 -17 -17
-16 -16 -17 -17 -17 -17 -17 -17 -17 -16 -16 -17 -17 -18 -18 -18 -18 -17 -17 -17 -17 -17 -17 -17 -17 -17 -17 -17 -17 -17 -17 -17 -17 -17 -17 -17 -17 -17 -17 -17 -18 -18
-16 -17 -17 -17 -17 -17 -17 -17 -17 -17 -16 -17 -17 -18 -18 -18 -18 -18 -18 -17 -17 -17 -17 -17 -17 -17 -17 -17 -17 -17 -17 -17 -17 -17 -17 -18 -18 -18 -18 -18 -18 -18
-17 -17 -17 -17 -18 -17 -17 -17 -17 -17 -17 -17 -18 -18 -18 -18 -18 -18 -18 -18 -18 -18 -17 -17 -17 -17 -17 -17 -17 -17 -17 -17 -18 -18 -18 -18 -18 -18 -18 -18 -18 -18
-17 -17 -17 -17 -18 -18 -17 -17 -18 -18 -18 -18 -18 -18 -18 -18 -18 -18 -18 -18 -18 -18 -18 -18 -18 -17 -17 -17 -17 -18 -18 -18 -18 -18 -18 -18 -18 -18 -18 -18 -18 -18
-17 -18 -17 -17 -18 -18 -18 -18 -18 -18 -18 -18 -18 -18 -18 -18 -18 -18 -18 -18 -18 -18 -18 -18 -18 -18 -17 -17 -18 -18 -18 -18 -18 -18 -18 -18 -18 -18 -18 -18 -18 -18
-18 -18 -18 -18 -18 -18 -18 -18 -18 -18 -18 -18 -18 -18 -18 -18 -18 -18 -18 -18 -18 -18 -18 -18 -18 -18 -18 -18 -18 -18 -18 -18 -18 -18 -18 -18 -18 -18 -18 -18 -18 -18
-18 -18 -18 -17 -17 -18 -18 -18 -18 -18 -18 -18 -18 -18 -18 -18 -18 -18 -18 -18 -18 -18 -19 -19 -19 -18 -18 -18 -18 -18 -18 -18 -18 -18 -18 -18 -18 -18 -18 -18 -18 -18
-18 -17 -17 -17 -18 -18 -18 -18 -18 -18 -18 -18 -18 -18 -18 -18 -18 -18 -19 -19 -19 -18 -18 -19 -19 -19 -19 -19 -19 -19 -19 -18 -18 -19 -19 -18 -18 -18 -18 -18 -18 -18
-18 -18 -18 -18 -18 -18 -18 -18 -18 -18 -18 -18 -18 -18 -18 -18 -18 -19 -19 -19 -19 -19 -19 -19 -19 -19 -19 -19 -19 -19 -19 -19 -19 -19 -19 -19 -19 -19 -18 -18 -18 -18
-18 -18 -18 -18 -18 -18 -18 -18 -18 -18 -18 -18 -18 -18 -18 -19 -18 -19 -19 -18 -18 -18 -19 -19 -19 -19 -19 -19 -19 -19 -19 -19 -19 -19 -19 -19 -19 -19 -19 -19 -19 -19
-18 -18 -18 -18 -18 -18 -18 -18 -18 -18 -18 -18 -18 -18 -19 -19 -19 -18 -18 -18 -18 -18 -18 -19 -19 -19 -19 -19 -19 -19 -19 -19 -19 -19 -19 -19 -19 -19 -19 -19 -19 -19
-18 -18 -18 -18 -18 -18 -18 -18 -18 -18 -18 -18 -18 -18 -19 -19 -18 -18 -18 -18 -18 -18 -19 -19 -19 -19 -19 -19 -19 -19 -20 -20 -19 -19 -19 -19 -19 -19 -19 -19 -19 -19
-18 -18 -19 -19 -18 -18 -18 -18 -18 -18 -18 -18 -18 -18 -19 -19 -18 -18 -19 -19 -19 -19 -19 -19 -19 -19 -19 -19 -19 -19 -20 -19 -19 -19 -19 -19 -19 -19 -19 -19 -19 -19
-19 -19 -19 -19 -19 -19 -19 -18 -19 -19 -18 -18 -18 -19 -19 -19 -19 -18 -18 -19 -19 -19 -19 -19 -19 -19 -19 -19 -19 -20 -20 -20 -20 -20 -20 -20 -19 -19 -19 -19 -19 -19
-19 -19 -19 -19 -19 -19 -19 -19 -19 -19 -19 -19 -19 -19 -19 -19 -19 -19 -19 -19 -19 -20 -20 -19 -19 -19 -19 -20 -20 -20 -20 -20 -20 -20 -20 -20 -20 -20 -20 -19 -19 -19
-20 -20 -20 -20 -19 -19 -20 -20 -20 -20 -20 -19 -19 -19 -19 -19 -19 -19 -19 -19 -19 -20 -20 -20 -20 -20 -20 -20 -20 -20 -20 -20 -20 -20 -20 -20 -20 -20 -20 -20 -20 -19
-20 -20 -20 -20 -20 -20 -20 -20 -20 -20 -20 -20 -20 -20 -20 -20 -20 -20 -20 -20 -20 -20 -20 -20 -20 -20 -20 -20 -20 -20 -20 -20 -20 -20 -20 -20 -20 -20 -20 -20 -20 -20
-20 -20 -20 -20 -20 -20 -20 -20 -20 -20 -20 -20 -20 -20 -20 -20 -20 -20 -20 -20 -20 -20 -20 -20 -20 -20 -20 -20 -20 -20 -20 -20 -20 -20 -20 -20 -20 -20 -20 -20 -20 -20
-20 -20 -20 -20 -20 -20 -20 -21 -21 -21 -21 -21 -21 -21 -20 -20 -20 -20 -20 -20 -20 -20 -21 -20 -20 -20 -20 -20 -20 -20 -20 -20 -20 -20 -20 -20 -20 -20 -20 -20 -20 -20
-21 -21 -21 -21 -21 -21 -21 -21 -21 -21 -21 -21 -21 -21 -21 -21 -21 -21 -21 -21 -21 -21 -21 -21 -21 -21 -20 -20 -20 -20 -20 -20 -20 -20 -20 -20 -20 -20 -20 -20 -20 -20
-21 -21 -21 -21 -21 -21 -21 -21 -21 -21 -21 -21 -21 -21 -21 -21 -21 -21 -21 -21 -21 -21 -21 -21 -21 -21 -21 -21 -21 -21 -21 -21 -21 -21 -21 -21 -21 -21 -21 -21 -20 -20
-21 -21 -21 -21 -21 -21 -21 -21 -21 -21 -21 -22 -22 -21 -21 -21 -22 -22 -22 -22 -22 -22 -22 -22 -22 -21 -21 -21 -21 -21 -21 -21 -21 -21 -21 -21 -21 -21 -21 -21 -21 -20
Height
5753 5752 5753 5754 5754 5753 5752 5752 5752 5753 5754 5754 5754 5754 5754 5754 5754 5754 5754 5754 5754 5754 5754 5755 5755 5755 5755 5755 5756 5756 5756 5756 5757 5757 5757 5757 5757 5758 5758 5758 5758 5758
5750 5749 5750 5751 5752 5751 5750 5749 5749 5751 5751 5751 5751 5752 5752 5752 5752 5752 5752 5752 5752 5752 5752 5752 5752 5753 5753 5753 5754 5754 5754 5754 5755 5755 5755 5756 5756 5756 5756 5756 5757 5757
5746 5746 5746 5747 5748 5748 5748 5747 5747 5747 5748 5749 5749 5749 5749 5750 5750 5750 5750 5750 5750 5751 5751 5751 5751 5751 5751 5751 5752 5752 5752 5753 5753 5753 5754 5754 5754 5754 5754 5755 5755 5755
5742 5742 5742 5742 5743 5744 5744 5744 5744 5744 5745 5746 5746 5746 5747 5747 5748 5748 5748 5748 5749 5749 5749 5749 5749 5749 5749 5750 5750 5750 5751 5751 5751 5752 5752 5752 5752 5752 5752 5753 5753 5753
5738 5739 5739 5739 5740 5740 5740 5741 5741 5742 5742 5743 5743 5744 5744 5745 5745 5746 5746 5747 5747 5747 5747 5748 5747 5747 5748 5748 5748 5748 5749 5749 5749 5750 5750 5750 5750 5751 5751 5751 5751 5751
5733 5734 5736 5737 5738 5738 5738 5738 5739 5739 5739 5739 5740 5741 5741 5742 5742 5743 5744 5744 5745 5745 5745 5745 5745 5745 5745 5745 5746 5746 5746 5747 5747 5747 5748 5748 5748 5749 5749 5749 5749 5750
5732 5732 5734 5735 5736 5736 5736 5736 5736 5737 5737 5737 5737 5738 5739 5739 5740 5740 5741 5741 5742 5742 5742 5743 5743 5743 5743 5743 5744 5744 5744 5744 5745 5745 5746 5746 5747 5747 5747 5747 5747 5748
5731 5731 5731 5731 5732 5733 5734 5734 5734 5734 5735 5735 5735 5735 5736 5737 5737 5737 5738 5738 5739 5739 5739 5740 5740 5740 5741 5741 5741 5741 5742 5742 5743 5743 5744 5744 5745 5745 5745 5745 5746 5746
5730 5730 5730 5729 5731 5732 5732 5731 5731 5732 5733 5733 5733 5733 5733 5734 5735 5735 5735 5736 5736 5736 5737 5737 5738 5738 5738 5739 5739 5739 5739 5740 5741 5741 5742 5742 5742 5743 5743 5743 5743 5743
5729 5729 5728 5727 5729 5730 5730 5729 5729 5730 5730 5731 5731 5731 5731 5731 5732 5733 5733 5733 5734 5734 5734 5735 5736 5736 5737 5738 5738 5737 5738 5738 5739 5739 5739 5740 5740 5741 5741 5741 5741 5741
5726 5726 5726 5725 5725 5725 5726 5726 5726 5727 5727 5728 5728 5728 5728 5728 5729 5730 5731 5731 5732 5732 5732 5732 5733 5734 5735 5736 5736 5736 5736 5736 5736 5736 5737 5737 5738 5738 5738 5738 5739 5739
5724 5724 5723 5723 5722 5722 5722 5722 5722 5723 5724 5725 5725 5726 5726 5726 5727 5727 5728 5729 5730 5730 5729 5730 5730 5730 5731 5732 5733 5733 5733 5734 5734 5734 5734 5734 5734 5735 5735 5736 5736 5736
5721 5720 5720 5720 5720 5720 5719 5720 5720 5721 5721 5721 5722 5723 5723 5723 5724 5724 5725 5726 5726 5726 5726 5727 5727 5727 5727 5727 5728 5729 5730 5731 5731 5731 5731 5731 5732 5732 5732 5733 5733 5733
5716 5717 5718 5719 5719 5718 5717 5717 5717 5718 5719 5718 5718 5720 5720 5720 5721 5721 5721 5722 5722 5722 5723 5723 5724 5725 5725 5724 5725 5726 5727 5728 5728 5728 5728 5728 5728 5728 5728 5729 5729 5729
5712 5713 5714 5715 5715 5715 5715 5715 5715 5715 5716 5715 5716 5717 5717 5717 5718 5718 5719 5719 5719 5719 5720 5720 5721 5722 5722 5721 5721 5722 5723 5724 5724 5724 5724 5724 5724 5724 5724 5724 5724 5725
5708 5709 5709 5710 5710 5711 5712 5712 5712 5712 5713 5713 5714 5714 5714 5714 5714 5714 5715 5714 5714 5715 5716 5716 5717 5717 5717 5717 5717 5718 5719 5719 5720 5720 5720 5720 5721 5721 5721 5720 5720 5720
5703 5704 5705 5705 5706 5707 5708 5708 5709 5709 5710 5710 5710 5710 5710 5710 5710 5709 5710 5709 5709 5710 5712 5712 5712 5711 5711 5712 5713 5713 5714 5715 5715 5716 5716 5716 5716 5716 5716 5716 5716 5716
5698 5699 5700 5700 5701 5702 5703 5703 5704 5705 5706 5706 5706 5706 5705 5706 5705 5705 5705 5705 5704 5705 5706 5707 5708 5708 5707 5708 5708 5709 5709 5710 5710 5711 5711 5711 5711 5711 5712 5712 5712 5711
5692 5693 5694 5694 5695 5696 5697 5698 5699 5700 5700 5701 5701 5701 5701 5701 5701 5701 5701 5700 5700 5700 5700 5701 5703 5703 5703 5703 5704 5704 5704 5705 5705 5705 5706 5706 5707 5707 5707 5707 5707 5706
5686 5687 5688 5688 5690 5691 5691 5692 5693 5694 5695 5695 5696 5696 5696 5696 5696 5696 5696 5696 5696 5695 5695 5696 5696 5697 5698 5699 5699 5700 5700 5700 5700 5700 5701 5701 5701 5701 5701 5701 5701 5701
5679 5680 5681 5682 5683 5684 5684 5685 5686 5687 5688 5689 5690 5690 5691 5691 5691 5691 5692 5692 5691 5691 5691 5691 5691 5692 5693 5694 5694 5695 5695 5695 5695 5695 5695 5695 5695 5695 5695 5695 5695 5695
5673 5673 5674 5675 5676 5677 5677 5678 5678 5679 5680 5682 5683 5684 5684 5685 5686 5686 5686 5686 5686 5686 5686 5686 5687 5687 5688 5688 5688 5689 5689 5689 5689 5689 5689 5689 5689 5689 5689 5688 5688 5688
5665 5666 5667 5668 5669 5670 5670 5671 5671 5672 5673 5674 5676 5677 5678 5678 5679 5679 5679 5680 5680 5680 5681 5681 5681 5682 5682 5682 5683 5683 5683 5683 5683 5683 5683 5682 5682 5682 5682 5682 5682 5681
5658 5659 5660 5661 5662 5662 5663 5664 5665 5666 5667 5668 5669 5670 5671 5671 5672 5672 5673 5673 5673 5674 5674 5675 5675 5675 5676 5676 5676 5677 5677 5677 5677 5676 5676 5676 5676 5676 5676 5676 5676 5676
5652 5653 5654 5655 5655 5655 5656 5658 5659 5660 5661 5662 5662 5663 5663 5664 5664 5665 5665 5666 5666 5667 5667 5668 5668 5669 5669 5670 5670 5670 5670 5670 5670 5670 5670 5670 5670 5670 5670 5670 5670 5669
5647 5647 5648 5648 5648 5648 5649 5651 5652 5653 5655 5655 5655 5656 5656 5656 5657 5657 5658 5659 5659 5660 5660 5660 5661 5662 5662 5663 5663 5663 5663 5664 5664 5664 5664 5664 5664 5665 5665 5664 5664 5663
Wind_Speed
27 26 24 21 20 23 24 22 19 16 15 14 12 11 11 12 12 13 14 15 16 16 16 15 14 14 13 13 12 12 12 12 12 12 12 12 11 11 11 11 12 12
28 28 27 24 24 25 26 23 20 16 16 14 11 10 11 11 12 12 13 14 15 15 15 15 14 14 14 13 13 12 12 12 12 11 11 10 10 9 9 9 9 9
28 28 27 28 28 26 24 22 20 17 16 13 10 10 10 11 12 12 12 13 13 13 13 13 13 13 14 13 13 13 13 13 13 12 12 11 10 9 8 8 8 8
30 30 27 25 26 27 26 24 20 17 16 14 12 10 10 11 12 12 12 12 13 13 13 13 13 13 13 13 13 13 13 13 13 13 13 12 11 11 10 9 8 8
30 28 23 19 20 22 22 21 18 16 17 15 13 13 12 12 13 13 13 14 14 14 15 15 15 15 15 15 14 13 13 13 13 13 13 13 12 11 10 9 9 8
21 19 17 15 16 17 17 17 17 18 19 16 13 13 13 14 14 14 14 14 14 15 15 16 16 17 17 16 16 15 14 14 14 14 13 13 13 12 11 10 10 10
15 16 16 17 16 16 16 16 16 18 19 16 14 13 13 14 15 15 15 14 15 15 16 16 16 16 16 16 16 16 15 15 14 14 13 13 13 12 11 10 10 10
19 19 18 17 15 14 14 15 15 17 18 17 16 15 14 14 14 15 16 16 16 16 16 17 16 16 16 16 16 16 15 15 14 13 13 13 13 12 10 9 9 10
20 18 17 17 15 15 15 15 16 17 18 18 18 18 17 16 16 16 17 17 17 17 18 18 18 18 17 17 16 17 16 16 14 13 13 13 13 13 12 11 10 12
17 18 17 16 16 18 19 18 17 17 18 19 20 20 20 19 19 19 19 19 19 19 19 20 20 19 18 18 17 17 17 17 16 16 15 15 15 15 14 14 14 15
16 18 18 17 17 19 22 22 22 20 18 20 22 23 23 22 21 21 21 22 21 20 20 21 21 21 20 20 20 19 19 19 18 18 17 16 16 16 17 17 18 18
18 18 18 19 19 19 20 21 23 22 21 22 23 23 23 22 22 23 24 24 25 25 24 23 23 24 23 23 23 23 21 20 20 20 20 19 19 19 19 20 20 20
20 19 19 19 19 21 21 21 22 24 24 24 22 22 21 20 23 27 27 27 27 27 26 25 24 24 26 27 27 26 24 23 22 23 23 23 23 23 23 23 23 23
24 23 22 22 22 22 22 23 24 25 26 25 24 23 23 22 24 26 27 29 30 29 26 26 25 25 28 30 29 28 26 25 24 24 24 25 25 25 25 26 26 27
30 28 26 25 24 22 20 21 22 22 25 28 27 25 25 25 25 26 27 29 31 31 29 29 29 29 31 29 25 23 23 22 22 23 24 25 26 27 28 29 30 31
33 32 29 28 27 26 24 23 22 23 25 28 28 24 23 25 28 30 30 27 27 29 32 33 31 30 30 27 24 23 24 26 27 27 28 28 29 31 33 34 34 35
36 35 33 31 31 31 31 30 28 27 26 28 29 28 28 30 32 32 32 31 30 30 31 32 33 32 32 31 31 31 32 33 32 31 31 32 32 34 36 37 38 39
39 38 36 34 33 32 32 33 32 30 29 31 33 35 35 36 36 35 36 38 38 35 32 32 35 38 37 36 35 35 35 34 33 32 32 33 34 36 37 39 40 41
39 38 37 37 36 34 33 34 34 33 33 33 36 38 38 37 38 38 39 40 40 37 35 34 36 37 36 34 34 35 34 33 32 32 32 33 34 36 37 39 41 42
40 39 39 39 39 38 38 38 37 36 35 34 36 37 37 37 36 37 37 37 38 37 36 34 33 33 33 32 33 34 35 35 35 34 34 34 34 34 35 37 38 40
43 42 42 42 42 42 43 42 40 37 35 35 37 39 39 37 36 35 35 35 35 36 36 36 35 34 34 34 35 36 37 38 38 37 36 35 34 35 35 36 37 38
46 46 45 45 45 45 45 44 42 40 37 37 39 40 40 39 38 38 38 38 38 38 38 38 39 39 39 39 39 39 38 38 38 39 37 36 35 36 37 38 38 39
46 47 48 47 47 46 45 44 43 41 40 40 42 42 43 43 42 41 41 41 42 42 41 41 42 42 43 43 42 41 39 38 38 39 39 39 39 39 40 40 41 41
43 44 44 44 44 43 43 43 42 41 41 42 43 45 45 45 46 46 46 46 45 45 44 44 44 44 44 45 44 42 40 39 39 40 41 42 43 44 43 43 43 44
41 40 39 40 42 43 43 41 40 41 41 42 44 45 47 48 50 50 48 46 44 44 44 43 44 45 45 45 44 43 41 41 41 42 43 45 46 46 46 45 45 45
43 41 39 38 40 43 44 44 43 43 43 44 45 47 49 50 51 50 46 43 42 42 42 43 44 44 44 44 43 43 42 42 43 44 45 46 47 47 47 47 46 46
Wind_Direction
264 264 269 274 277 275 272 274 278 277 275 277 279 279 277 273 269 266 265 262 257 251 246 243 241 241 241 241 242 243 244 244 245 248 251 255 261 266 270 273 275 278
268 266 267 267 271 271 265 265 269 267 266 268 267 270 272 271 270 268 266 265 260 255 249 245 243 241 241 240 239 240 240 241 243 244 247 250 255 260 265 271 276 281
268 267 272 270 264 262 261 258 260 262 261 256 248 254 260 263 267 266 264 264 262 258 254 249 246 245 244 244 243 242 241 241 241 241 243 244 247 252 257 265 275 283
269 267 276 275 260 257 258 251 249 259 261 246 227 234 247 253 259 262 262 262 262 260 256 252 248 246 246 249 250 252 252 250 249 248 246 246 247 250 253 258 265 272
279 271 272 274 265 257 250 243 249 263 263 247 225 227 239 246 251 255 257 259 259 260 259 255 252 248 246 247 249 253 256 258 258 257 255 253 253 254 257 261 266 271
288 277 271 278 279 265 248 249 264 269 262 251 234 232 241 245 247 250 254 257 260 261 262 260 257 254 251 250 250 251 252 253 254 255 255 255 255 255 257 260 265 270
295 291 285 281 276 271 267 266 266 263 261 256 248 248 251 249 249 249 252 257 260 262 262 261 260 258 256 255 253 251 250 248 249 249 251 255 257 256 255 258 264 269
299 299 295 286 267 259 269 267 258 257 260 261 262 264 263 259 255 254 255 258 261 263 262 261 261 260 258 256 253 250 247 246 248 252 257 261 262 259 256 261 272 281
295 295 296 294 273 257 261 261 254 256 258 259 263 264 262 263 263 262 261 261 262 263 263 264 264 263 262 260 255 250 247 245 246 254 263 268 266 263 261 266 278 291
289 291 292 293 280 265 263 261 255 258 261 259 258 258 257 259 263 264 264 263 263 263 265 268 269 268 269 269 264 257 252 249 249 257 266 270 268 265 265 270 282 293
283 287 285 285 276 261 260 262 258 257 263 261 256 253 252 254 258 261 263 264 262 260 259 261 263 266 271 271 267 262 257 255 256 260 266 269 270 268 268 272 280 287
286 284 278 278 274 262 261 264 257 253 261 265 257 250 251 254 258 263 265 266 267 264 258 254 254 258 263 265 264 262 260 260 262 265 268 268 268 266 266 270 275 279
286 281 272 272 274 271 268 266 260 258 262 262 251 246 251 257 261 266 268 271 272 268 261 255 253 256 260 260 259 260 260 260 264 270 271 270 269 267 267 271 276 280
282 280 279 280 283 281 275 270 269 268 267 262 254 251 257 261 262 266 270 273 272 268 262 257 256 260 264 263 259 257 258 262 268 273 273 272 272 272 275 278 281 283
281 282 283 281 280 281 278 272 268 266 267 265 258 257 263 265 265 264 266 270 270 265 257 255 260 263 263 259 254 251 254 262 269 271 273 273 274 277 280 282 283 284
280 281 280 276 274 273 273 271 267 268 270 263 254 256 267 271 269 263 257 258 265 261 251 247 252 258 256 251 251 257 265 272 274 274 275 276 276 277 280 281 282 283
276 277 278 275 272 269 266 266 266 268 269 262 255 258 266 270 272 268 259 257 267 270 259 247 248 258 265 266 269 274 277 279 280 280 280 280 279 278 278 278 279 279
272 273 273 270 266 263 261 263 266 266 265 263 261 262 265 267 269 269 266 267 274 279 273 262 259 265 272 275 277 278 279 281 282 283 283 282 282 281 279 278 278 277
268 267 265 263 260 259 259 262 266 267 266 265 264 264 265 265 266 267 268 271 276 279 279 274 270 271 274 276 278 279 280 283 285 286 285 283 282 280 279 278 277 276
261 260 258 258 257 258 262 265 267 267 266 264 262 261 260 261 263 265 267 269 273 276 277 276 273 272 273 274 277 280 281 282 283 285 287 288 287 286 284 282 280 279
259 258 257 257 257 260 264 267 267 266 263 258 256 256 256 257 259 263 267 269 270 272 274 275 274 273 272 274 278 282 283 282 281 281 284 288 291 292 292 290 288 285
261 260 259 259 261 264 267 268 268 266 262 256 253 253 253 253 257 263 268 270 271 272 273 273 273 272 272 274 280 284 284 283 281 278 280 286 291 294 296 295 293 290
264 262 262 263 264 265 266 266 266 265 262 258 256 255 254 255 259 264 268 270 271 272 272 271 271 270 271 274 279 283 283 284 283 279 279 284 290 294 296 296 295 293
262 262 262 263 263 263 262 262 263 263 262 261 260 259 257 258 262 267 270 271 270 270 269 269 268 269 271 274 278 280 280 281 283 282 282 285 289 293 295 295 295 294
255 256 258 260 261 259 258 258 258 258 259 260 261 261 260 262 266 269 270 269 267 267 267 268 268 269 271 273 275 277 278 280 282 284 285 287 289 291 292 294 294 294
251 251 253 256 257 256 255 254 253 254 257 259 261 262 262 265 267 268 268 267 267 268 268 268 269 270 272 273 274 275 277 279 281 283 286 288 289 290 291 292 293 293